Regional Weather Roundup
Issued by NWS

Home | Current Version | Previous Version | Text Only | Print | Product List | Glossary On
Versions: 1 2 3 4 5 6 7 8 9 10 11 12 13 14 15 16 17 18 19 20 21 22 23 24 25 26 27 28 29 30 31 32 33 34 35 36 37 38 39 40 41 42 43 44 45 46 47 48 49 50
000
ASCA42 TJSJ 040810
RWRPR
PUERTO RICO/U.S. VIRGIN ISLANDS HOURLY WEATHER ROUNDUP
NATIONAL WEATHER SERVICE SAN JUAN PR
400 AM AST SAT JUL 04 2015

PRZ001-004-040900-
PUERTO RICO

CITY           SKY/WX    TMP DP  RH WIND       PRES   REMARKS
SAN JUAN LMM   MOCLDY    81  77  89 E13       30.05S
PONCE          CLEAR     81  72  74 E7        29.96F
CEIBA          CLOUDY    81  73  78 E10G20    30.07R
$$

PRZ006-007-040900-
U.S. VIRGIN ISLANDS

CITY           SKY/WX    TMP DP  RH WIND       PRES   REMARKS
CHARLOTTE AMA  CLOUDY    82  73  74 E16       30.04S
CHRISTIANSTED  CLOUDY    81  72  74 E12       30.04S
$$

HOURLY WEATHER ROUNDUP FOR THE NEWS MEDIA

CITY           SKY/WX    TMP DP  RH WIND       PRES   REMARKS
ORLANDO        MOCLDY    76  71  85 SW3       30.08S
NEW YORK       CLOUDY    71  59  65 E3        29.97F
NEWARK         LGT RAIN  70  62  76 CALM      29.96S
CHICAGO        CLEAR     61  55  81 CALM      29.95S
HARTFORD       MOCLDY    59  58  96 CALM      30.00S
BOSTON         MOCLDY    62  56  80 S7        30.01R
DALLAS         MOCLDY    83  71  67 SW10      29.94R
PHILADELPHIA   CLOUDY    70  65  84 E3        29.94S
LOS ANGELES    CLOUDY    62  59  90 W8        29.89F
WASHINGTON DC  CLOUDY    69  65  86 CALM      29.89F


USA.gov is the U.S. government's official web portal to all federal, state and local government web resources and services.